Weather History for Window Rock, AZ

Change the Weather History Date:

Saturday, December 8, 2012

  Actual Average Record
Temperature  
Mean Temperature 30 °F -  
Max Temperature 51 °F 44 °F 64 °F (1940)
Min Temperature 10 °F 18 °F -19 °F (1978)
Degree Days  
Heating Degree Days 34    
Moisture  
Dew Point 10 °F    
Average Humidity 49    
Maximum Humidity 88    
Minimum Humidity 17    
Precipitation  
Precipitation 0.00 in - - ()
Sea Level Pressure  
Sea Level Pressure 29.92 in    
Wind  
Wind Speed 4 mph (WSW)    
Max Wind Speed 17 mph    
Max Gust Speed 22 mph    
Visibility 10 miles    
Events      
Averages and records for this station are not official NWS values.
T = Trace of Precipitation, MM = Missing Value Source: NWS Daily Summary

Daily Weather History Graph

Daily Weather History Graph

Search for Another Location

Airport:

Trip Planner

Search our weather history database for the weather conditions in past years. The results will help you decide how hot, cold, wet, or windy it might be!

Date:

Astronomy

Dec. 08, 2012 Rise Set
Actual Time 7:13 AM MST 5:02 PM MST
Civil Twilight 6:45 AM MST 5:31 PM MST
Nautical Twilight 6:13 AM MST 6:02 PM MST
Astronomical Twilight 5:42 AM MST 6:33 PM MST
Moon 1:50 AM MST (12/8) 1:27 PM MST (12/8)
Length of Visible Light 10h 45m
Length of Day
9h 48m
Waning Crescent, 27% of the Moon is Illuminated
Dec 8
Waning Crescent
Dec 13
New
Dec 19
First Quarter
Dec 28
Full
Jan 4
Last Quarter

Hourly Weather History & Observations

Time (MST) Temp. Windchill Dew Point Humidity Pressure Visibility Wind Dir Wind Speed Gust Speed Precip Events Conditions
12:53 AM 19.0 °F - 12.9 °F 77% 29.93 in 10.0 mi Calm Calm - N/A   Clear
1:53 AM 19.0 °F - 14.0 °F 81% 29.93 in 10.0 mi Calm Calm - N/A   Clear
2:53 AM 15.1 °F - 10.9 °F 84% 29.93 in 10.0 mi North - - N/A   Clear
3:53 AM 14.0 °F 8.2 °F 10.9 °F 88% 29.94 in 10.0 mi SSW 3.5 mph - N/A   Clear
4:53 AM 15.1 °F - 10.9 °F 84% 29.93 in 10.0 mi Calm Calm - N/A   Clear
5:53 AM 14.0 °F - 10.0 °F 84% 29.98 in 10.0 mi Calm Calm - N/A   Clear
6:53 AM 10.9 °F 4.7 °F 8.1 °F 88% 30.02 in 10.0 mi Variable 3.5 mph - N/A   Clear
7:53 AM 12.0 °F - 8.1 °F 84% 30.04 in 10.0 mi Calm Calm - N/A   Clear
8:53 AM 24.1 °F - 16.0 °F 71% 30.01 in 10.0 mi Calm Calm - N/A   Clear
9:53 AM 33.1 °F 30.0 °F 19.9 °F 59% 29.98 in 10.0 mi SSW 3.5 mph - N/A   Clear
10:53 AM 46.0 °F 41.4 °F 19.0 °F 34% 29.92 in 10.0 mi WSW 9.2 mph - N/A   Clear
11:53 AM 48.9 °F - 16.0 °F 27% 29.89 in 10.0 mi West 9.2 mph 19.6 mph N/A   Clear
12:53 PM 51.1 °F - 7.0 °F 17% 29.86 in 10.0 mi West 16.1 mph 21.9 mph N/A   Clear
1:53 PM 50.0 °F - 9.0 °F 19% 29.86 in 10.0 mi West 10.4 mph 20.7 mph N/A   Clear
2:53 PM 50.0 °F - 10.9 °F 21% 29.87 in 10.0 mi West 17.3 mph - N/A   Clear
3:53 PM 48.9 °F - 8.1 °F 19% 29.87 in 10.0 mi West 10.4 mph - N/A   Clear
4:53 PM 45.0 °F 40.6 °F 5.0 °F 19% 29.90 in 10.0 mi WSW 8.1 mph - N/A   Clear
5:53 PM 39.0 °F 36.8 °F 7.0 °F 27% 29.93 in 10.0 mi SW 3.5 mph - N/A   Clear
6:53 PM 34.0 °F 28.8 °F 7.0 °F 32% 29.97 in 10.0 mi SSW 5.8 mph - N/A   Clear
7:53 PM 39.0 °F 34.8 °F 7.0 °F 27% 29.95 in 10.0 mi WSW 5.8 mph - N/A   Clear
8:53 PM 36.0 °F 29.6 °F 7.0 °F 30% 29.90 in 10.0 mi South 8.1 mph - N/A   Clear
9:53 PM 37.0 °F - 8.1 °F 30% 29.87 in 10.0 mi Calm Calm - N/A   Clear
10:53 PM 28.0 °F 24.2 °F 7.0 °F 41% 29.85 in 10.0 mi Variable 3.5 mph - N/A   Clear
11:53 PM 28.9 °F - 7.0 °F 40% 29.82 in 10.0 mi Calm Calm - N/A   Clear